Regional Weather Roundup
Issued by NWS

Home | Current Version | Previous Version | Graphics & Text | Print | Product List | Glossary On
Versions: 1 2 3 4 5 6 7 8 9 10 11 12 13 14 15 16 17 18 19 20 21 22 23 24 25 26 27 28 29 30 31 32 33 34 35 36 37 38 39 40 41 42 43 44 45 46 47 48 49 50
000
ASUS43 KDMX 172307
RWRIA

WEATHER ROUNDUP FOR IOWA
NATIONAL WEATHER SERVICE DES MOINES IA
600 PM CDT FRI APR 17 2015

NOTE: "FAIR" INDICATES FEW OR NO CLOUDS BELOW 12,000 FEET WITH NO
SIGNIFICANT WEATHER AND/OR OBSTRUCTIONS TO VISIBILITY.

* - THESE STATIONS ARE NOT NWS STATIONS...THUS NOT UNDER NWS
QUALITY CONTROL.  THEY ALSO DO NOT REPORT WEATHER SUCH
AS PRECIPITATION OR FOG.

IAZ001>003-012>014-020>022-031>034-043>046-180000-
   NORTHWEST IOWA

CITY           SKY/WX    TMP DP  RH WIND       PRES   REMARKS
CARROLL *      MOSUNNY   75  45  33 SE6       29.99S
CHEROKEE *     CLOUDY    72  45  37 CALM      30.01S
DENISON *      MOSUNNY   73  50  43 E3        29.98S
LE MARS *      MOSUNNY   73  46  38 SW5       30.03R
ORANGE CITY *  SUNNY     72  43  35 CALM      30.02S
SHELDON *      SUNNY     73  41  31 E5        30.01F
SIOUX CITY     CLOUDY    75  48  38 VRB6      30.00F
SPENCER        CLOUDY    76  42  29 CALM      30.02F
STORM LAKE *   SUNNY     73  43  33 N6        30.03S
$$

IAZ055>058-069>071-079>083-090>094-180000-
   SOUTHWEST IOWA

CITY           SKY/WX    TMP DP  RH WIND       PRES   REMARKS
ATLANTIC *     MOSUNNY   75  52  43 E7        29.99S
AUDUBON *      MOSUNNY   75  48  38 CALM      30.01S
CLARINDA *     SUNNY     75  54  46 E6        29.98S
COUNCIL BLFS * SUNNY     73  54  49 E5        29.99S
CRESTON *      SUNNY     73  52  46 NE8       29.99F
HARLAN  *      SUNNY     75  50  41 SE8       30.03S
LAMONI         PTSUNNY   77  56  48 NE5       29.97F
RED OAK *      MOSUNNY   75  54  46 E8        29.98S
SHENANDOAH *   MOSUNNY   75  55  50 E6        29.97F
$$

IAZ047>049-059>061-072>074-084-180000-
   CENTRAL IOWA

CITY           SKY/WX    TMP DP  RH WIND       PRES   REMARKS
AMES           PTSUNNY   77  47  34 CALM      29.98F
ANKENY *       SUNNY     75  50  41 SE5       29.99S
CHARITON *     SUNNY     77  52  41 E6        29.99S
DES MOINES     CLOUDY    78  48  34 S3        29.99F
GRINNELL*      PTSUNNY   77  48  36 S6        30.00S
KNOXVILLE *    PTSUNNY   75  50  41 CALM      29.98F HAZE
MARSHALLTOWN   MOSUNNY   77  48  35 S3        29.98F
PELLA *        CLOUDY    77  55  47 SW3       30.01S
PERRY *          N/A     77  46  33 SE5       29.99S
$$

IAZ004>006-015-016-023>025-035-036-180000-
   NORTH CENTRAL IOWA

CITY           SKY/WX    TMP DP  RH WIND       PRES   REMARKS
ALGONA *       SUNNY     73  43  33 N3        30.02S
CLARION *      SUNNY     75  43  31 N5        30.01R
FORT DODGE *   PTSUNNY   75  46  35 N5        30.01F
MASON CITY     PTSUNNY   75  43  31 N5        30.02S
FOREST CITY *  PTSUNNY   72  41  33 CALM      30.01S
IOWA FALLS *   PTSUNNY   77  43  29 NE3       30.01S
$$

IAZ007>011-017>019-026>030-037>042-050>054-066-180000-
   NORTHEAST IOWA

CITY           SKY/WX    TMP DP  RH WIND       PRES   REMARKS
CEDAR RAPIDS   MOSUNNY   77  50  38 SE5       29.98S
CHARLES CITY * SUNNY     75  43  31 N6        30.01R
CLINTON *      SUNNY     77  48  36 SW3       30.01S
DECORAH *      MOSUNNY   75  41  29 NW7       29.99S
DUBUQUE        MOSUNNY   75  49  39 NW6       30.00S
MONTICELLO *   SUNNY     77  48  36 SW6       29.98F
OELWEIN *      SUNNY     77  48  36 SW6       30.00S
WATERLOO       PTSUNNY   78  46  32 CALM      29.98S
$$

IAZ064-065-067-068-078-180000-
   EAST CENTRAL IOWA

CITY           SKY/WX    TMP DP  RH WIND       PRES   REMARKS
DAVENPORT      SUNNY     78  46  32 SW8       29.99F
IOWA CITY      SUNNY     77  48  35 CALM      29.99F
MT. PLEASANT * MOSUNNY   77  48  36 CALM      29.98F
MUSCATINE *    SUNNY     77  52  41 CALM      29.98F
QUAD CITIES    SUNNY     80  46  30 S5        29.97F
$$

IAZ062-063-075>077-085>089-095>099-180000-
   SOUTHEAST IOWA

CITY           SKY/WX    TMP DP  RH WIND       PRES   REMARKS
BURLINGTON     MOSUNNY   78  52  40 CALM      29.98F
FAIRFIELD *      N/A     77  50  38 CALM      29.99F
FORT MADISON * SUNNY     79  52  38 CALM      29.98F
KEOKUK *       SUNNY     79  55  44 S5        29.97F
OSKALOOSA *    PTSUNNY   77  48  36 CALM      30.00S
CENTERVILLE *  MOSUNNY   77  55  47 NE6       30.00S
OTTUMWA        PTSUNNY   77  50  38 CALM      29.98F
WASHINGTON *   SUNNY     77  50  38 W5        29.99S
$$

ABBREVIATIONS USED IN REMARKS
   TC - TEMPERATURES IN CELSIUS
  WCI - WIND CHILL INDEX
   HX - HEAT INDEX
  VSB - VISIBILITY
$$



USA.gov is the U.S. government's official web portal to all federal, state and local government web resources and services.